Volver al catálogo

FENGYUN 1C DEB

ActivoSSO
NORAD 30895·DEBRIS·🇨🇳 China

Lanzado May 10, 1999 desde Taiyuan Satellite Launch Center

Loading…

Próximos Pases (próximas 24 horas)

TLE

ActualizadoSource: Space-Track

Época: Sep 14, 2026, 10:21 UTC

1 30895U 99025AYH 26257.43180762  .00000451  00000-0  14450-3 0  9990
2 30895  98.6901 331.8924 0216191  33.7760  23.5546 14.32080044 17320

Sigue FENGYUN 1C DEB en tiempo real con AllMySat

Download on the App Store